Regional Weather Roundup
Issued by NWS Mobile, AL

Home | Current Version | Previous Version | Text Only | Print | Product List | Glossary On
Versions: 1 2 3 4 5 6 7 8 9 10 11 12 13 14 15 16 17 18 19 20 21 22 23 24 25 26 27 28 29 30 31 32 33 34 35 36 37 38 39 40 41 42 43 44 45 46 47 48 49 50
000
ASUS44 KMOB 281817
RWRMOB
REGIONAL WEATHER ROUNDUP
NATIONAL WEATHER SERVICE MOBILE AL
100 PM CDT TUE JUL 28 2015

ALZ061>064-281900-
COASTAL ALABAMA


CITY           SKY/WX    TMP DP  RH WIND       PRES   REMARKS
MOBILE REG APT PTSUNNY   93  73  52 CALM      30.01F HX 102
6HR MIN TEMP:  77; 6HR MAX TEMP:  94;

BROOKLEY FIELD MOSUNNY   94  75  54 E7        30.00F HX 105
6HR MIN TEMP:  80; 6HR MAX TEMP:  95;

GULF SHORES    PTCLDY    93  71  48 CALM      29.99S HX 100
6HR MIN TEMP:  78; 6HR MAX TEMP:  94;


$$

ALZ051>060-281900-
INTERIOR SOUTHWEST AND SOUTH CENTRAL ALABAMA


CITY           SKY/WX    TMP DP  RH WIND       PRES   REMARKS
ANDALUSIA/OPP  MOSUNNY   99  71  40 VRB7      29.99F HX 107
6HR MIN TEMP:  80; 6HR MAX TEMP: 100;

EVERGREEN      SUNNY     96  73  47 VRB3      30.00F HX 105
6HR MIN TEMP:  75; 6HR MAX TEMP:  97;

FLORALA        PTCLDY    95  72  47 VRB6      30.00F HX 103
6HR MIN TEMP:  76; 6HR MAX TEMP:  96;

GREENVILLE     FAIR      96  71  44 W5        29.99F HX 103
6HR MIN TEMP:  77; 6HR MAX TEMP:  97;


$$

FLZ001>006-281900-
WESTERN FLORIDA PANHANDLE


CITY           SKY/WX    TMP DP  RH WIND       PRES   REMARKS
CRESTVIEW      SUNNY     95  73  48 NW6       30.00S HX 104
6HR MIN TEMP:  75; 6HR MAX TEMP:  96;

DESTIN         MOSUNNY   93  76  57 S7        29.97F HX 105
6HR MIN TEMP:  82; 6HR MAX TEMP:  97;

DUKE FIELD     PTSUNNY   95  71  44 N5        29.98F HX 102
6HR MIN TEMP:  77; 6HR MAX TEMP:  96;

MARY ESTHER    PTSUNNY   92  74  55 S9        29.97S HX 101
6HR MIN TEMP:  78; 6HR MAX TEMP:  95; 6HR PCP: TRACE;

MILTON         PTCLDY    95  73  48 N9        29.98F HX 104
6HR MIN TEMP:  79; 6HR MAX TEMP:  98;

PENSACOLA      SUNNY     95  72  47 NW6       29.98F HX 103
6HR MIN TEMP:  80; 6HR MAX TEMP:  95;

NAS PENSACOLA  MOSUNNY   95  75  52 S9        29.98S HX 107
6HR MIN TEMP:  79; 6HR MAX TEMP:  95;

VALPARAISO     PTSUNNY   98  69  39 N9        29.98S HX 104
6HR MIN TEMP:  79; 6HR MAX TEMP:  98;


$$

...MARINE OBSERVATIONS...

STATION/POSITION TIME  SKY/WX   TEMP    WIND        PRES    VSBY
                                AIR SEA DIR/SP/G
                 (UTC)          (F)     (DEG/KT/KT) (MB)    (MI)
PASCAGOULA       1700            92     350/  7/  9 1016.0F
PETIT BOIS ISL   1700            90     340/  3/  5 1016.7S
E DAUPHIN ISLAND 1800            88      10/  2/  3 1015.5F
MIDDLE BAY LIGHT 1700            89      20/  6     1015.9R
USCG MOBILE BAY  1700            91 85  260/  2/  7 1015.0F
MEAHER PARK      1800            92     290/  3     1014.2F
12 S ORANGE BCH  1750            86 86  260/  4/  6 1015.1F
WVE H/P(F/S)=  1

PENSACOLA BAY    1700            94 83   40/  3/  6 1015.6F
64 S DAUPHIN ISL 1750            86 89  340/  6/  8 1016.4S
WVE H/P(F/S)=  1

67 S FORT MORGAN 1730            87     350/  6     1016.3S
115 SE PENSACOLA 1750            86 87  320/ 10/ 12 1015.7F
WVE H/P(F/S)=  2/ 4

MID GULF/42001   1750            85 86  270/  2/  4 1017.4F
WVE H/P(F/S)=  1/ 4

EAST GULF/42003  1750            85 85  290/  6/  6 1016.9S
WVE H/P(F/S)=  1/ 9


$$

...NEARBY LOCATIONS

CITY           SKY/WX    TMP DP  RH WIND       PRES   REMARKS
GULFPORT       PTSUNNY   92  71  50 SW5       29.99F HX  98
6HR MIN TEMP:  77; 6HR MAX TEMP:  94;

BILOXI         SUNNY     94  76  56 SW9       29.99F HX 107
6HR MIN TEMP:  79; 6HR MAX TEMP:  94;

PASCAGOULA     SUNNY     94  72  48 CALM      29.99F HX 102
6HR MIN TEMP:  75; 6HR MAX TEMP:  95;

HATTIESBURG    MOSUNNY   93  70  46 VRB3      30.01F HX  99
6HR MIN TEMP:  78; 6HR MAX TEMP:  95;

LAUREL         MOSUNNY   91  61  35 NW3       30.04S
6HR MIN TEMP:  75; 6HR MAX TEMP:  93;

MERIDIAN       PTSUNNY   92  71  50 SW3       30.01F HX  98
6HR MIN TEMP:  74; 6HR MAX TEMP:  95;

MERIDIAN NAS   MOSUNNY   95  69  42 SW3       30.01F HX 100
6HR MIN TEMP:  77; 6HR MAX TEMP:  96;

MONTGOMERY     SUNNY     96  74  48 MISG      29.99F HX 107
6HR MIN TEMP:  78; 6HR MAX TEMP:  96;

MAXWELL AFB    MOSUNNY   94  76  56 VRB1      29.98F HX 106
6HR MIN TEMP:  78; 6HR MAX TEMP:  94;

TROY           PTSUNNY   96  72  45 N7        29.99F HX 104
6HR MIN TEMP:  73; 6HR MAX TEMP:  98;

FORT RUCKER    PTSUNNY   97  73  45 NW8       29.96F HX 107
6HR MIN TEMP:  77; 6HR MAX TEMP:  97;

DALEVILLE      MOSUNNY   93  74  52 W3        29.97F HX 103
6HR MIN TEMP:  77; 6HR MAX TEMP:  95;

DOTHAN         CLOUDY    93  72  50 N5        30.01F HX 101
6HR MIN TEMP:  79; 6HR MAX TEMP:  94;


$$

...OTHER SURROUNDING LOCATIONS...

CITY           SKY/WX    TMP DP  RH WIND       PRES   REMARKS
BIRMINGHAM     MOSUNNY   92  74  55 W7        30.03F HX 101
6HR MIN TEMP:  75; 6HR MAX TEMP:  94;

TUSCALOOSA     MOSUNNY   94  72  48 CALM      30.00F HX 102
6HR MIN TEMP:  77; 6HR MAX TEMP:  95;

COLUMBUS GA    MOSUNNY   91  77  63 SE7       29.98F HX 104
6HR MIN TEMP:  76; 6HR MAX TEMP:  95; 6HR PCP:  0.03;

PANAMA CITY    NOT AVBL
TALLAHASSEE    PTSUNNY   98  70  40 NE8       29.96F HX 105
6HR MIN TEMP:  79; 6HR MAX TEMP:  98;

BATON ROUGE    PTSUNNY   93  71  48 NW3       30.01F HX 100
6HR MIN TEMP:  76; 6HR MAX TEMP:  94;

NEW ORLEANS    MOSUNNY   93  68  43 S8        30.01S HX  97
6HR MIN TEMP:  80; 6HR MAX TEMP:  93;

SLIDELL        PTSUNNY   92  74  55 W5        30.00F HX 101
6HR MIN TEMP:  74; 6HR MAX TEMP:  94;

JACKSON        PTSUNNY   97  68  38 VRB3      30.01F HX 102
6HR MIN TEMP:  77; 6HR MAX TEMP:  97;

MCCOMB         MOSUNNY   92  73  53 SW8       30.03S HX 100
6HR MIN TEMP:  75; 6HR MAX TEMP:  93;


$$

...SURROUNDING MARINE OBSERVATIONS...

STATION/POSITION TIME  SKY/WX   TEMP    WIND        PRES    VSBY
                                AIR SEA DIR/SP/G
                 (UTC)          (F)     (DEG/KT/KT) (MB)    (MI)
WAVELAND         1700            89 88   30/  6/  7 1016.6F
PASCAGOULA RGN A 1700            93      10/  5/  8 1015.6F
PASCAGOULA PORT  1700               87                N/A
GRAND ISLE       1700            88 90  100/  3/  6 1016.9F
SOUTHWEST PASS   1800            87     200/  2/  2 1016.7F
PILOT STATION E  1700            91 86  190/  1/  3 1017.1F
SHELL BEACH      1700            86 89   20/  4/  6 1016.0F
PANAMA CITY      1700            86 86  250/ 11/ 13 1014.3F
APALACHICOLA     1700            88 89  220/  4/  5 1014.8F
TYNDALL TOWER C  1800            84     190/  4/  5 1014.8F
S APLCHCLA/42036 1750            85 85  210/  2/  2 1015.6R
WVE H/P(F/S)=  3/ 5


$$




USA.gov is the U.S. government's official web portal to all federal, state and local government web resources and services.